Current Version              Previous Version:    01  02  03  04  05  06  07  08  09  10  11  12  13  14  15  16  17  18  19  20  21  22  23  24  25  26  27  28  29  30  
   31  32  33  34  35  36  37  38  39  40  41  42  43  44  45  46  47  48  49  50  51  52  53  54  55  56  57  58  59  60  

[Printable]
874
ASUS44 KEWX 200110
RWRTX
SOUTH TEXAS REGIONAL WEATHER ROUNDUP
NATIONAL WEATHER SERVICE AUSTIN/SAN ANTONIO TX
700 PM CST FRI DEC 19 2014

NOTE: "FAIR" INDICATED FEW OR NO CLOUDS BELOW 12,000 FEET WITH NO
SIGNIFICANT WEATHER AND/OR OBSTRUCTIONS TO VISIBILITY.

* - THESE STATIONS ARE NOT NWS OR FAA STATIONS...AND ARE NOT SUBJECT
    TO NWS AND FAA QUALITY CONTROL.

TXZ171-172-183>190-200200-
TEXAS HILL COUNTRY AND EDWARDS PLATEAU

CITY           SKY/WX    TMP DP  RH WIND       PRES   REMARKS
JUNCTION       CLEAR     49  44  83 CALM      30.14R
*LLANO         CLOUDY    52  45  76 NE3       30.19R
BURNET         CLOUDY    49  44  83 N8        30.17R WCI  45
*HORSESHOE BAY CLOUDY    51  45  78 NE5       30.16R
*KERRVILLE     MOCLDY    49  45  86 N6        30.14R WCI  46
*FREDERICKSBRG CLOUDY    49  44  82 N10       30.14S WCI  45
*ROCKSPRINGS   CLEAR     52  45  76 NE5       30.14R
*BOERNE STAGE  CLOUDY    50  45  81 N10       30.14R WCI  46
*CASTROVILLE   CLEAR     55  46  73 NE7       30.14R
HONDO          CLEAR     55  48  77 NE8       30.13R
*UVALDE        CLEAR     45  41  85 SE5       30.10R WCI  43
DEL RIO        CLEAR     59  44  57 E6        30.07R
LAUGHLIN AFB   CLEAR     59  50  71 E2        30.08R
CARRIZO SPRGS  CLEAR     52  50  93 CALM      30.09R
$$

TXZ173-191>194-202-209-217>225-228-200200-
CENTRAL AND SOUTH CENTRAL TEXAS

CITY           SKY/WX    TMP DP  RH WIND       PRES   REMARKS
GEORGETOWN     CLOUDY    48  46  93 N9        30.15R WCI  44
AUSTIN/BERGSTM CLOUDY    51  47  86 N15       30.15R
AUSTIN/MABRY   CLOUDY    51  46  83 N10G17    30.16R
*AUSTIN/EXEC   CLOUDY    50  46  87 N13       30.16R WCI  45
*LAGO VISTA    CLOUDY    49  46  90 N7        30.15R WCI  46
SAN MARCOS     CLOUDY    54  46  76 N15       30.14R
NEW BRAUNFELS  CLOUDY    55  47  74 N14       30.12R
RANDOLPH AFB   CLOUDY    54  47  76 N10       30.13R
PT SAN ANTONIO CLEAR     54  47  79 NE13      30.11R
SAN ANTONIO    PTCLDY    54  47  77 NE9       30.13R
STINSON FIELD  CLEAR     55  47  74 N9        30.11R
*PLEASANTON    CLEAR     57  50  77 N6        30.11R
*LA GRANGE     CLOUDY    54  51  90 N12       30.11R
*GIDDINGS      CLOUDY    50  48  92 N8G16     30.17R FOG     WCI  47
*GONZALES      NOT AVBL
$$

TXZ163>164-176>182-195>201-210>213-226-227-235-200200-
SOUTHEAST TEXAS

CITY           SKY/WX    TMP DP  RH WIND       PRES   REMARKS
COLLEGE STN    CLOUDY    51  50  96 N13       30.13R FOG
*BRYAN         CLOUDY    50  49  97 N9        30.15R FOG     WCI  47
*CALDWELL      CLOUDY    48  48 100 NW12      30.17R FOG     WCI  43
*CROCKETT      CLOUDY    52  52 100 N6        30.17R
*BRENHAM       CLOUDY    54  52  92 N13       30.13R FOG
HUNTSVILLE     LGT RAIN  51  49  92 VRB7      30.12R FOG
CONROE         CLOUDY    54  52  93 N12       30.10R
HOUSTON BUSH   CLOUDY    55  53  93 N13       30.08R
HOUSTON HOBBY  CLOUDY    54  53  97 N15       30.06R
*HOUSTON SW AP CLOUDY    46  46  97 N10G16    30.07R WCI  41
PEARLAND       CLOUDY    55  53  93 NE14G22   30.07R
HOUSTON HOOKS  CLOUDY    55  52  89 N8        30.08R
ELLINGTON FLD  CLOUDY    54  52  94 N13       30.08R
SUGAR LAND     CLOUDY    57  53  86 N14       30.06R
*HOUSTON EXEC  CLOUDY    55  54  94 N10       30.10R FOG
*CLEVELAND MUN CLOUDY    52  51  97 N7        30.10R
*WHARTON       CLOUDY    57  55  95 N10       30.08R FOG
*COLUMBUS      CLOUDY    53  53  97 N16       30.10R FOG
$$

TXZ214>216-236>238-200200-
THE UPPER TEXAS COAST

CITY           SKY/WX    TMP DP  RH WIND       PRES   REMARKS
*ORANGE        LGT RAIN  54  53  97 N9        30.06R
PORT ARTHUR    LGT RAIN  54  53  97 N10       30.05R
GALVESTON      LGT RAIN  55  54  96 N18       30.04R
ANGLETON       CLOUDY    54  54 100 N10       30.05R
*BAY CITY        N/A     57  56  96 N8        30.05R
PALACIOS       CLOUDY    58  55  90 N12       30.05R
$$

TXZ229>234-239>247-200200-
TEXAS COASTAL BEND AND RIO GRANDE PLAINS

CITY           SKY/WX    TMP DP  RH WIND       PRES   REMARKS
VICTORIA       CLOUDY    61  55  81 N13       30.08R
*BEEVILLE      CLOUDY    60  54  82 N10       30.08R
ROCKPORT       CLOUDY    60  55  83 N12       30.06R
*PORT ARANSAS  CLOUDY    60  55  86 N16       30.05S
*PORT LAVACA   CLOUDY    58  56  93 N12       30.07R
*INGLESIDE     CLOUDY    59  55  84 N10       30.05S
CORPUS CHRISTI CLOUDY    61  56  83 N10       30.06R
CORPUS NAS     CLOUDY    61  56  83 N20       30.05S
*ROBSTOWN      NOT AVBL
ALICE          CLOUDY    62  55  77 N10       30.07R
KINGSVILLE NAS CLOUDY    61  58  90 N8        30.07R
COTULLA        CLEAR     59  50  72 NE5       30.09R
LAREDO         CLEAR     57  54  88 CALM      30.11R
$$

TXZ248>255-200200-
DEEP SOUTH TEXAS

CITY           SKY/WX    TMP DP  RH WIND       PRES   REMARKS
BROWNSVILLE    CLOUDY    60  56  86 N13       30.05R
PORT ISABEL    CLOUDY    60  56  86 N13       30.04R
*SOUTH PADRE   MOCLDY    61  57  88 E16       30.04R
HARLINGEN      CLOUDY    60  57  89 N14       30.05R
*HEBBRONVILLE  CLEAR     58  54  85 CALM      30.09R
MCALLEN        CLOUDY    62  57  83 N10       30.08R
*WESLACO       CLOUDY    61  55  82 N10G16    30.07R
FALFURRIAS     CLOUDY    63  56  78 N7        30.07R
EDINBURG       CLOUDY    63  56  79 N7        30.08R
*ZAPATA        MOCLDY    55  55  99 W3        30.08R
$$

TXZ213>215-236>238-242>244-246-247-251-254-255-200200-
CMAN STATIONS

STATION/POSITION TIME  TEMP    WIND        PRES    WAVE
                       AIR SEA DIR/SP/G            HT/PER
                 (UTC) (F)     (DEG/KT/KT) (MB)    (FT/S)
SABINE PASS      0100           40/  9/ 12   N/A
SEA RIM ST PARK  0100   56      20/  9/ 13 1017.5
NORTH JETTY/GLS  0100   54 62   40/ 17/ 21   N/A
EAGLE POINT      0100   55 62   10/ 12/ 17 1017.6
MORGANS POINT    0100   53      10/ 15/ 17 1017.9
MISSION/ARANSAS  0000   60      10/ 13     1018.0
PORT O`CONNOR    0100          360/ 21/ 24   N/A
PORT ARANSAS     0100   60 64  360/ 19/ 22 1017.7
MALAQUITE BEACH  0100          360/ 15/ 21   N/A
BAFFIN BAY       0100   61     360/ 15/ 19 1017.6
PORT ISABEL      0100          350/ 14/ 20   N/A
$$

GMZ080-GMZ150>470-200200-
OFFSHORE BUOY REPORTS

STATION/POSITION TIME  TEMP    WIND        PRES    WAVE
                       AIR SEA DIR/SP/G            HT/PER
                 (UTC) (F)     (DEG/KT/KT) (MB)    (FT/S)
20 E GALVESTON   0100   60 65   40/ 19/ 25 1015.4    5/ 5
90 E PT ARANSAS  0100   65 71   10/ 17/ 21 1015.5    7/ 7
35 NE PT MANSFLD 0100   63 73  360/ 21/ 25 1015.6    5/ 5
200 E PT ISABEL  0100   73 73  260/  8/ 10 1014.7    3/ 6
$$